ASTRA 2C

Last updated on Wed Jun 19 2024 00:02:38 GMT+0000 (Coordinated Universal Time)

1 26853U 01025A 24170.55938566 .00000049 00000+0 00000+0 0 9994 2 26853 6.3734 72.0254 0004788 341.8328 268.9477 0.99038332 84265
UTC large
Height (km)
Speed (km/s)
/
Latitude / Longitude
Inclination (degrees)
Orbital Period (minutes)
Azimuth
Elevation
Range (km)
Doppler Factor

Next 0 passes for location: London (51.5072 / 0.1276)

Sorry there are no passes over London.